Year,Month,Day,Hour,Minute,Value (Times are PST for temperature in C)
2018,05,25,00,00,14.80
2018,05,25,00,01,14.80
2018,05,25,00,02,14.80
2018,05,25,00,03,14.80
2018,05,25,00,04,14.80
2018,05,25,00,05,14.80
2018,05,25,00,06,14.70
2018,05,25,00,07,14.70
2018,05,25,00,08,14.70
2018,05,25,00,09,14.70
2018,05,25,00,10,14.70
2018,05,25,00,11,14.60
2018,05,25,00,12,14.60
2018,05,25,00,13,14.60
2018,05,25,00,14,14.50
2018,05,25,00,15,14.50
2018,05,25,00,16,14.40
2018,05,25,00,17,14.40
2018,05,25,00,18,14.40
2018,05,25,00,19,14.30
2018,05,25,00,20,14.30
2018,05,25,00,21,14.30
2018,05,25,00,22,14.30
2018,05,25,00,23,14.20
2018,05,25,00,24,14.20
2018,05,25,00,25,14.20
2018,05,25,00,26,14.20
2018,05,25,00,27,14.20
2018,05,25,00,28,14.20
2018,05,25,00,29,14.20
2018,05,25,00,30,14.10
2018,05,25,00,31,14.10
2018,05,25,00,32,14.10
2018,05,25,00,33,14.10
2018,05,25,00,34,14.00
2018,05,25,00,35,14.00
2018,05,25,00,36,14.00
2018,05,25,00,37,13.90
2018,05,25,00,38,13.90
2018,05,25,00,39,13.90
2018,05,25,00,40,13.80
2018,05,25,00,41,13.80
2018,05,25,00,42,13.80
2018,05,25,00,43,13.80
2018,05,25,00,44,13.70
2018,05,25,00,45,13.70
2018,05,25,00,46,13.70
2018,05,25,00,47,13.70
2018,05,25,00,48,13.60
2018,05,25,00,49,13.60
2018,05,25,00,50,13.60
2018,05,25,00,51,13.50
2018,05,25,00,52,13.50
2018,05,25,00,53,13.50
2018,05,25,00,54,13.40
2018,05,25,00,55,13.40
2018,05,25,00,56,13.40
2018,05,25,00,57,13.30
2018,05,25,00,58,13.30
2018,05,25,00,59,13.30
2018,05,25,01,00,13.20
2018,05,25,01,01,13.20
2018,05,25,01,02,13.20
2018,05,25,01,03,13.20
2018,05,25,01,04,13.10
2018,05,25,01,05,13.10
2018,05,25,01,06,13.10
2018,05,25,01,07,13.00
2018,05,25,01,08,13.00
2018,05,25,01,09,13.00
2018,05,25,01,10,13.00
2018,05,25,01,11,13.00
2018,05,25,01,12,13.00
2018,05,25,01,13,13.00
2018,05,25,01,14,13.00
2018,05,25,01,15,12.90
2018,05,25,01,16,12.90
2018,05,25,01,17,12.90
2018,05,25,01,18,12.90
2018,05,25,01,19,12.80
2018,05,25,01,20,12.80
2018,05,25,01,21,12.80
2018,05,25,01,22,12.80
2018,05,25,01,23,12.70
2018,05,25,01,24,12.70
2018,05,25,01,25,12.70
2018,05,25,01,26,12.60
2018,05,25,01,27,12.60
2018,05,25,01,28,12.50
2018,05,25,01,29,12.50
2018,05,25,01,30,12.40
2018,05,25,01,31,12.40
2018,05,25,01,32,12.40
2018,05,25,01,33,12.40
2018,05,25,01,34,12.30
2018,05,25,01,35,12.30
2018,05,25,01,36,12.30
2018,05,25,01,37,12.30
2018,05,25,01,38,12.30
2018,05,25,01,39,12.30
2018,05,25,01,40,12.20
2018,05,25,01,41,12.20
2018,05,25,01,42,12.20
2018,05,25,01,43,12.10
2018,05,25,01,44,12.10
2018,05,25,01,45,12.00
2018,05,25,01,46,12.00
2018,05,25,01,47,11.90
2018,05,25,01,48,11.90
2018,05,25,01,49,11.90
2018,05,25,01,50,11.90
2018,05,25,01,51,11.80
2018,05,25,01,52,11.80
2018,05,25,01,53,11.80
2018,05,25,01,54,11.80
2018,05,25,01,55,11.80
2018,05,25,01,56,11.80
2018,05,25,01,57,11.80
2018,05,25,01,58,11.80
2018,05,25,01,59,11.70
2018,05,25,02,00,11.70
2018,05,25,02,01,11.70
2018,05,25,02,02,11.70
2018,05,25,02,03,11.60
2018,05,25,02,04,11.60
2018,05,25,02,05,11.60
2018,05,25,02,06,11.60
2018,05,25,02,07,11.60
2018,05,25,02,08,11.50
2018,05,25,02,09,11.50
2018,05,25,02,10,11.50
2018,05,25,02,11,11.50
2018,05,25,02,12,11.50
2018,05,25,02,13,11.50
2018,05,25,02,14,11.40
2018,05,25,02,15,11.40
2018,05,25,02,16,11.40
2018,05,25,02,17,11.40
2018,05,25,02,18,11.40
2018,05,25,02,19,11.40
2018,05,25,02,20,11.40
2018,05,25,02,21,11.40
2018,05,25,02,22,11.40
2018,05,25,02,23,11.40
2018,05,25,02,24,11.40
2018,05,25,02,25,11.40
2018,05,25,02,26,11.30
2018,05,25,02,27,11.30
2018,05,25,02,28,11.30
2018,05,25,02,29,11.30
2018,05,25,02,30,11.30
2018,05,25,02,31,11.20
2018,05,25,02,32,11.20
2018,05,25,02,33,11.20
2018,05,25,02,34,11.20
2018,05,25,02,35,11.20
2018,05,25,02,36,11.20
2018,05,25,02,37,11.10
2018,05,25,02,38,11.10
2018,05,25,02,39,11.10
2018,05,25,02,40,11.10
2018,05,25,02,41,11.10
2018,05,25,02,42,11.10
2018,05,25,02,43,11.00
2018,05,25,02,44,11.00
2018,05,25,02,45,11.00
2018,05,25,02,46,11.00
2018,05,25,02,47,11.00
2018,05,25,02,48,11.00
2018,05,25,02,49,11.00
2018,05,25,02,50,11.00
2018,05,25,02,51,11.00
2018,05,25,02,52,11.00
2018,05,25,02,53,11.00
2018,05,25,02,54,11.00
2018,05,25,02,55,11.00
2018,05,25,02,56,11.00
2018,05,25,02,57,11.00
2018,05,25,02,58,11.00
2018,05,25,02,59,11.00
2018,05,25,03,00,11.00
2018,05,25,03,01,11.00
2018,05,25,03,02,10.90
2018,05,25,03,03,10.90
2018,05,25,03,04,10.90
2018,05,25,03,05,10.90
2018,05,25,03,06,10.90
2018,05,25,03,07,10.90
2018,05,25,03,08,10.90
2018,05,25,03,09,10.90
2018,05,25,03,10,10.90
2018,05,25,03,11,10.80
2018,05,25,03,12,10.80
2018,05,25,03,13,10.80
2018,05,25,03,14,10.80
2018,05,25,03,15,10.80
2018,05,25,03,16,10.80
2018,05,25,03,17,10.80
2018,05,25,03,18,10.80
2018,05,25,03,19,10.80
2018,05,25,03,20,10.80
2018,05,25,03,21,10.80
2018,05,25,03,22,10.80
2018,05,25,03,23,10.80
2018,05,25,03,24,10.80
2018,05,25,03,25,10.80
2018,05,25,03,26,10.80
2018,05,25,03,27,10.80
2018,05,25,03,28,10.80
2018,05,25,03,29,10.80
2018,05,25,03,30,10.80
2018,05,25,03,31,10.80
2018,05,25,03,32,10.80
2018,05,25,03,33,10.90
2018,05,25,03,34,10.90
2018,05,25,03,35,10.90
2018,05,25,03,36,10.90
2018,05,25,03,37,10.90
2018,05,25,03,38,10.90
2018,05,25,03,39,10.90
2018,05,25,03,40,10.90
2018,05,25,03,41,10.90
2018,05,25,03,42,10.90
2018,05,25,03,43,10.90
2018,05,25,03,44,10.90
2018,05,25,03,45,10.90
2018,05,25,03,46,10.90
2018,05,25,03,47,10.90
2018,05,25,03,48,10.90
2018,05,25,03,49,10.90
2018,05,25,03,50,10.90
2018,05,25,03,51,10.90
2018,05,25,03,52,10.90
2018,05,25,03,53,10.90
2018,05,25,03,54,10.90
2018,05,25,03,55,10.80
2018,05,25,03,56,10.80
2018,05,25,03,57,10.80
2018,05,25,03,58,10.80
2018,05,25,03,59,10.80
2018,05,25,04,00,10.80
2018,05,25,04,01,10.80
2018,05,25,04,02,10.80
2018,05,25,04,03,10.80
2018,05,25,04,04,10.80
2018,05,25,04,05,10.70
2018,05,25,04,06,10.70
2018,05,25,04,07,10.70
2018,05,25,04,08,10.70
2018,05,25,04,09,10.70
2018,05,25,04,10,10.70
2018,05,25,04,11,10.70
2018,05,25,04,12,10.70
2018,05,25,04,13,10.60
2018,05,25,04,14,10.60
2018,05,25,04,15,10.60
2018,05,25,04,16,10.60
2018,05,25,04,17,10.60
2018,05,25,04,18,10.60
2018,05,25,04,19,10.60
2018,05,25,04,20,10.60
2018,05,25,04,21,10.50
2018,05,25,04,22,10.50
2018,05,25,04,23,10.50
2018,05,25,04,24,10.40
2018,05,25,04,25,10.40
2018,05,25,04,26,10.40
2018,05,25,04,27,10.40
2018,05,25,04,28,10.40
2018,05,25,04,29,10.40
2018,05,25,04,30,10.30
2018,05,25,04,31,10.30
2018,05,25,04,32,10.30
2018,05,25,04,33,10.30
2018,05,25,04,34,10.30
2018,05,25,04,35,10.20
2018,05,25,04,36,10.20
2018,05,25,04,37,10.20
2018,05,25,04,38,10.20
2018,05,25,04,39,10.20
2018,05,25,04,40,10.20
2018,05,25,04,41,10.20
2018,05,25,04,42,10.20
2018,05,25,04,43,10.20
2018,05,25,04,44,10.20
2018,05,25,04,45,10.20
2018,05,25,04,46,10.20
2018,05,25,04,47,10.20
2018,05,25,04,48,10.20
2018,05,25,04,49,10.20
2018,05,25,04,50,10.10
2018,05,25,04,51,10.10
2018,05,25,04,52,10.10
2018,05,25,04,53,10.10
2018,05,25,04,54,10.10
2018,05,25,04,55,10.10
2018,05,25,04,56,10.10
2018,05,25,04,57,10.00
2018,05,25,04,58,10.00
2018,05,25,04,59,10.00
2018,05,25,05,00,10.00
2018,05,25,05,01,10.00
2018,05,25,05,02,10.00
2018,05,25,05,03,10.00
2018,05,25,05,04,10.00
2018,05,25,05,05,10.00
2018,05,25,05,06,10.00
2018,05,25,05,07,10.00
2018,05,25,05,08,10.00
2018,05,25,05,09,10.00
2018,05,25,05,10,10.00
2018,05,25,05,11,9.90
2018,05,25,05,12,9.90
2018,05,25,05,13,9.90
2018,05,25,05,14,10.00
2018,05,25,05,15,9.90
2018,05,25,05,16,9.90
2018,05,25,05,17,9.90
2018,05,25,05,18,9.90
2018,05,25,05,19,9.90
2018,05,25,05,20,9.90
2018,05,25,05,21,9.90
2018,05,25,05,22,9.90
2018,05,25,05,23,9.90
2018,05,25,05,24,9.90
2018,05,25,05,25,9.90
2018,05,25,05,26,9.90
2018,05,25,05,27,10.00
2018,05,25,05,28,10.00
2018,05,25,05,29,10.00
2018,05,25,05,30,10.00
2018,05,25,05,31,10.00
2018,05,25,05,32,10.00
2018,05,25,05,33,9.90
2018,05,25,05,34,9.90
2018,05,25,05,35,9.90
2018,05,25,05,36,9.90
2018,05,25,05,37,9.90
2018,05,25,05,38,9.90
2018,05,25,05,39,9.90
2018,05,25,05,40,9.90
2018,05,25,05,41,9.90
2018,05,25,05,42,9.90
2018,05,25,05,43,9.90
2018,05,25,05,44,9.90
2018,05,25,05,45,9.90
2018,05,25,05,46,9.90
2018,05,25,05,47,9.90
2018,05,25,05,48,9.90
2018,05,25,05,49,9.90
2018,05,25,05,50,10.00
2018,05,25,05,51,10.00
2018,05,25,05,52,10.00
2018,05,25,05,53,10.00
2018,05,25,05,54,10.00
2018,05,25,05,55,10.00
2018,05,25,05,56,10.00
2018,05,25,05,57,10.00
2018,05,25,05,58,10.00
2018,05,25,05,59,10.10
2018,05,25,06,00,10.10
2018,05,25,06,01,10.10
2018,05,25,06,02,10.10
2018,05,25,06,03,10.10
2018,05,25,06,04,10.10
2018,05,25,06,05,10.10
2018,05,25,06,06,10.10
2018,05,25,06,07,10.10
2018,05,25,06,08,10.20
2018,05,25,06,09,10.20
2018,05,25,06,10,10.20
2018,05,25,06,11,10.20
2018,05,25,06,12,10.20
2018,05,25,06,13,10.30
2018,05,25,06,14,10.30
2018,05,25,06,15,10.30
2018,05,25,06,16,10.30
2018,05,25,06,17,10.40
2018,05,25,06,18,10.40
2018,05,25,06,19,10.50
2018,05,25,06,20,10.50
2018,05,25,06,21,10.60
2018,05,25,06,22,10.60
2018,05,25,06,23,10.70
2018,05,25,06,24,10.70
2018,05,25,06,25,10.80
2018,05,25,06,26,10.80
2018,05,25,06,27,10.80
2018,05,25,06,28,10.90
2018,05,25,06,29,10.90
2018,05,25,06,30,10.90
2018,05,25,06,31,10.90
2018,05,25,06,32,10.90
2018,05,25,06,33,10.90
2018,05,25,06,34,11.00
2018,05,25,06,35,11.00
2018,05,25,06,36,11.00
2018,05,25,06,37,11.00
2018,05,25,06,38,10.90
2018,05,25,06,39,10.90
2018,05,25,06,40,10.90
2018,05,25,06,41,11.00
2018,05,25,06,42,11.00
2018,05,25,06,43,11.10
2018,05,25,06,44,11.10
2018,05,25,06,45,11.10
2018,05,25,06,46,11.20
2018,05,25,06,47,11.20
2018,05,25,06,48,11.20
2018,05,25,06,49,11.20
2018,05,25,06,50,11.30
2018,05,25,06,51,11.30
2018,05,25,06,52,11.30
2018,05,25,06,53,11.30
2018,05,25,06,54,11.40
2018,05,25,06,55,11.40
2018,05,25,06,56,11.50
2018,05,25,06,57,11.50
2018,05,25,06,58,11.60
2018,05,25,06,59,11.60
2018,05,25,07,00,11.70
2018,05,25,07,01,11.70
2018,05,25,07,02,11.70
2018,05,25,07,03,11.80
2018,05,25,07,04,11.80
2018,05,25,07,05,11.90
2018,05,25,07,06,12.00
2018,05,25,07,07,12.00
2018,05,25,07,08,12.10
2018,05,25,07,09,12.10
2018,05,25,07,10,12.20
2018,05,25,07,11,12.20
2018,05,25,07,12,12.20
2018,05,25,07,13,12.30
2018,05,25,07,14,12.30
2018,05,25,07,15,12.40
2018,05,25,07,16,12.40
2018,05,25,07,17,12.50
2018,05,25,07,18,12.50
2018,05,25,07,19,12.50
2018,05,25,07,20,12.50
2018,05,25,07,21,12.60
2018,05,25,07,22,12.60
2018,05,25,07,23,12.60
2018,05,25,07,24,12.70
2018,05,25,07,25,12.70
2018,05,25,07,26,12.70
2018,05,25,07,27,12.80
2018,05,25,07,28,12.80
2018,05,25,07,29,12.80
2018,05,25,07,30,12.90
2018,05,25,07,31,12.90
2018,05,25,07,32,12.90
2018,05,25,07,33,12.90
2018,05,25,07,34,13.00
2018,05,25,07,35,13.00
2018,05,25,07,36,13.10
2018,05,25,07,37,13.10
2018,05,25,07,38,13.20
2018,05,25,07,39,13.20
2018,05,25,07,40,13.20
2018,05,25,07,41,13.30
2018,05,25,07,42,13.30
2018,05,25,07,43,13.40
2018,05,25,07,44,13.40
2018,05,25,07,45,13.50
2018,05,25,07,46,13.60
2018,05,25,07,47,13.60
2018,05,25,07,48,13.60
2018,05,25,07,49,13.70
2018,05,25,07,50,13.70
2018,05,25,07,51,13.70
2018,05,25,07,52,13.70
2018,05,25,07,53,13.80
2018,05,25,07,54,13.80
2018,05,25,07,55,13.80
2018,05,25,07,56,13.90
2018,05,25,07,57,13.90
2018,05,25,07,58,13.90
2018,05,25,07,59,14.00
2018,05,25,08,00,14.00
2018,05,25,08,01,14.10
2018,05,25,08,02,14.10
2018,05,25,08,03,14.10
2018,05,25,08,04,14.20
2018,05,25,08,05,14.20
2018,05,25,08,06,14.20
2018,05,25,08,07,14.30
2018,05,25,08,08,14.30
2018,05,25,08,09,14.30
2018,05,25,08,10,14.30
2018,05,25,08,11,14.40
2018,05,25,08,12,14.40
2018,05,25,08,13,14.50
2018,05,25,08,14,14.50
2018,05,25,08,15,14.60
2018,05,25,08,16,14.60
2018,05,25,08,17,14.60
2018,05,25,08,18,14.60
2018,05,25,08,19,14.60
2018,05,25,08,20,14.50
2018,05,25,08,21,14.50
2018,05,25,08,22,14.50
2018,05,25,08,23,14.50
2018,05,25,08,24,14.40
2018,05,25,08,25,14.30
2018,05,25,08,26,14.30
2018,05,25,08,27,14.20
2018,05,25,08,28,14.10
2018,05,25,08,29,14.10
2018,05,25,08,30,14.00
2018,05,25,08,31,14.00
2018,05,25,08,32,14.00
2018,05,25,08,33,14.00
2018,05,25,08,34,14.10
2018,05,25,08,35,14.20
2018,05,25,08,36,14.30
2018,05,25,08,37,14.30
2018,05,25,08,38,14.40
2018,05,25,08,39,14.40
2018,05,25,08,40,14.50
2018,05,25,08,41,14.50
2018,05,25,08,42,14.60
2018,05,25,08,43,14.60
2018,05,25,08,44,14.60
2018,05,25,08,45,14.70
2018,05,25,08,46,14.70
2018,05,25,08,47,14.70
2018,05,25,08,48,14.60
2018,05,25,08,49,14.60
2018,05,25,08,50,14.70
2018,05,25,08,51,14.70
2018,05,25,08,52,14.80
2018,05,25,08,53,14.80
2018,05,25,08,54,14.80
2018,05,25,08,55,14.80
2018,05,25,08,56,14.80
2018,05,25,08,57,14.80
2018,05,25,08,58,14.80
2018,05,25,08,59,14.80
2018,05,25,09,00,14.80
2018,05,25,09,01,14.80
2018,05,25,09,02,14.70
2018,05,25,09,03,14.70
2018,05,25,09,04,14.70
2018,05,25,09,05,14.70
2018,05,25,09,06,14.70
2018,05,25,09,07,14.80
2018,05,25,09,08,14.80
2018,05,25,09,09,14.80
2018,05,25,09,10,14.90
2018,05,25,09,11,15.00
2018,05,25,09,12,15.10
2018,05,25,09,13,15.10
2018,05,25,09,14,15.20
2018,05,25,09,15,15.20
2018,05,25,09,16,15.20
2018,05,25,09,17,15.20
2018,05,25,09,18,15.20
2018,05,25,09,19,15.10
2018,05,25,09,20,15.10
2018,05,25,09,21,15.10
2018,05,25,09,22,15.10
2018,05,25,09,23,15.10
2018,05,25,09,24,15.20
2018,05,25,09,25,15.20
2018,05,25,09,26,15.20
2018,05,25,09,27,15.20
2018,05,25,09,28,15.20
2018,05,25,09,29,15.10
2018,05,25,09,30,15.10
2018,05,25,09,31,15.10
2018,05,25,09,32,15.10
2018,05,25,09,33,15.20
2018,05,25,09,34,15.20
2018,05,25,09,35,15.20
2018,05,25,09,36,15.20
2018,05,25,09,37,15.20
2018,05,25,09,38,15.20
2018,05,25,09,39,15.30
2018,05,25,09,40,15.30
2018,05,25,09,41,15.30
2018,05,25,09,42,15.30
2018,05,25,09,43,15.30
2018,05,25,09,44,15.30
2018,05,25,09,45,15.20
2018,05,25,09,46,15.20
2018,05,25,09,47,15.10
2018,05,25,09,48,15.00
2018,05,25,09,49,15.00
2018,05,25,09,50,14.90
2018,05,25,09,51,14.90
2018,05,25,09,52,14.90
2018,05,25,09,53,14.90
2018,05,25,09,54,14.90
2018,05,25,09,55,14.90
2018,05,25,09,56,15.00
2018,05,25,09,57,15.00
2018,05,25,09,58,15.10
2018,05,25,09,59,15.10
2018,05,25,10,00,15.10
2018,05,25,10,01,15.20
2018,05,25,10,02,15.20
2018,05,25,10,03,15.20
2018,05,25,10,04,15.30
2018,05,25,10,05,15.30
2018,05,25,10,06,15.30
2018,05,25,10,07,15.30
2018,05,25,10,08,15.30
2018,05,25,10,09,15.30
2018,05,25,10,10,15.30
2018,05,25,10,11,15.40
2018,05,25,10,12,15.50
2018,05,25,10,13,15.50
2018,05,25,10,14,15.60
2018,05,25,10,15,15.60
2018,05,25,10,16,15.60
2018,05,25,10,17,15.60
2018,05,25,10,18,15.60
2018,05,25,10,19,15.60
2018,05,25,10,20,15.60
2018,05,25,10,21,15.60
2018,05,25,10,22,15.60
2018,05,25,10,23,15.60
2018,05,25,10,24,15.70
2018,05,25,10,25,15.70
2018,05,25,10,26,15.70
2018,05,25,10,27,15.70
2018,05,25,10,28,15.80
2018,05,25,10,29,15.80
2018,05,25,10,30,15.80
2018,05,25,10,31,15.80
2018,05,25,10,32,15.80
2018,05,25,10,33,15.80
2018,05,25,10,34,15.80
2018,05,25,10,35,15.80
2018,05,25,10,36,15.80
2018,05,25,10,37,15.70
2018,05,25,10,38,15.70
2018,05,25,10,39,15.70
2018,05,25,10,40,15.70
2018,05,25,10,41,15.70
2018,05,25,10,42,15.70
2018,05,25,10,43,15.70
2018,05,25,10,44,15.70
2018,05,25,10,45,15.70
2018,05,25,10,46,15.70
2018,05,25,10,47,15.80
2018,05,25,10,48,15.80
2018,05,25,10,49,15.70
2018,05,25,10,50,15.70
2018,05,25,10,51,15.70
2018,05,25,10,52,15.80
2018,05,25,10,53,15.80
2018,05,25,10,54,15.90
2018,05,25,10,55,16.00
2018,05,25,10,56,16.00
2018,05,25,10,57,16.10
2018,05,25,10,58,16.10
2018,05,25,10,59,16.10
2018,05,25,11,00,16.20
2018,05,25,11,01,16.20
2018,05,25,11,02,16.20
2018,05,25,11,03,16.20
2018,05,25,11,04,16.20
2018,05,25,11,05,16.20
2018,05,25,11,06,16.20
2018,05,25,11,07,16.20
2018,05,25,11,08,16.20
2018,05,25,11,09,16.20
2018,05,25,11,10,16.20
2018,05,25,11,11,16.20
2018,05,25,11,12,16.10
2018,05,25,11,13,16.10
2018,05,25,11,14,16.10
2018,05,25,11,15,16.10
2018,05,25,11,16,16.10
2018,05,25,11,17,16.10
2018,05,25,11,18,16.10
2018,05,25,11,19,16.10
2018,05,25,11,20,16.00
2018,05,25,11,21,16.00
2018,05,25,11,22,15.90
2018,05,25,11,23,15.90
2018,05,25,11,24,15.90
2018,05,25,11,25,15.90
2018,05,25,11,26,15.90
2018,05,25,11,27,15.90
2018,05,25,11,28,15.90
2018,05,25,11,29,16.00
2018,05,25,11,30,16.00
2018,05,25,11,31,16.10
2018,05,25,11,32,16.10
2018,05,25,11,33,16.10
2018,05,25,11,34,16.00
2018,05,25,11,35,16.00
2018,05,25,11,36,16.00
2018,05,25,11,37,16.00
2018,05,25,11,38,16.00
2018,05,25,11,39,16.00
2018,05,25,11,40,16.00
2018,05,25,11,41,15.90
2018,05,25,11,42,15.90
2018,05,25,11,43,15.80
2018,05,25,11,44,15.80
2018,05,25,11,45,15.80
2018,05,25,11,46,15.70
2018,05,25,11,47,15.70
2018,05,25,11,48,15.70
2018,05,25,11,49,15.70
2018,05,25,11,50,15.70
2018,05,25,11,51,15.80
2018,05,25,11,52,15.80
2018,05,25,11,53,15.70
2018,05,25,11,54,15.70
2018,05,25,11,55,15.70
2018,05,25,11,56,15.70
2018,05,25,11,57,15.70
2018,05,25,11,58,15.70
2018,05,25,11,59,15.70
2018,05,25,12,00,15.70
2018,05,25,12,01,15.70
2018,05,25,12,02,15.70
2018,05,25,12,03,15.70
2018,05,25,12,04,15.70
2018,05,25,12,05,15.70
2018,05,25,12,06,15.70
2018,05,25,12,07,15.70
2018,05,25,12,08,15.60
2018,05,25,12,09,15.60
2018,05,25,12,10,15.60
2018,05,25,12,11,15.60
2018,05,25,12,12,15.60
2018,05,25,12,13,15.60
2018,05,25,12,14,15.60
2018,05,25,12,15,15.60
2018,05,25,12,16,15.60
2018,05,25,12,17,15.60
2018,05,25,12,18,15.60
2018,05,25,12,19,15.60
2018,05,25,12,20,15.60
2018,05,25,12,21,15.60
2018,05,25,12,22,15.60
2018,05,25,12,23,15.60
2018,05,25,12,24,15.60
2018,05,25,12,25,15.60
2018,05,25,12,26,15.60
2018,05,25,12,27,15.60
2018,05,25,12,28,15.60
2018,05,25,12,29,15.70
2018,05,25,12,30,15.70
2018,05,25,12,31,15.80
2018,05,25,12,32,15.80
2018,05,25,12,33,15.80
2018,05,25,12,34,15.90
2018,05,25,12,35,15.80
2018,05,25,12,36,15.80
2018,05,25,12,37,15.80
2018,05,25,12,38,15.80
2018,05,25,12,39,15.80
2018,05,25,12,40,15.80
2018,05,25,12,41,15.70
2018,05,25,12,42,15.70
2018,05,25,12,43,15.70
2018,05,25,12,44,15.70
2018,05,25,12,45,15.70
2018,05,25,12,46,15.60
2018,05,25,12,47,15.60
2018,05,25,12,48,15.60
2018,05,25,12,49,15.60
2018,05,25,12,50,15.60
2018,05,25,12,51,15.60
2018,05,25,12,52,15.60
2018,05,25,12,53,15.60
2018,05,25,12,54,15.60
2018,05,25,12,55,15.60
2018,05,25,12,56,15.60
2018,05,25,12,57,15.70
2018,05,25,12,58,15.70
2018,05,25,12,59,15.70
2018,05,25,13,00,15.70
2018,05,25,13,01,15.70
2018,05,25,13,02,15.80
2018,05,25,13,03,15.80
2018,05,25,13,04,15.80
2018,05,25,13,05,15.90
2018,05,25,13,06,15.90
2018,05,25,13,07,15.90
2018,05,25,13,08,15.90
2018,05,25,13,09,15.90
2018,05,25,13,10,15.90
2018,05,25,13,11,15.90
2018,05,25,13,12,15.90
2018,05,25,13,13,15.90
2018,05,25,13,14,15.90
2018,05,25,13,15,15.90
2018,05,25,13,16,15.90
2018,05,25,13,17,15.90
2018,05,25,13,18,15.90
2018,05,25,13,19,16.00
2018,05,25,13,20,16.00
2018,05,25,13,21,16.10
2018,05,25,13,22,16.10
2018,05,25,13,23,16.10
2018,05,25,13,24,16.10
2018,05,25,13,25,16.20
2018,05,25,13,26,16.20
2018,05,25,13,27,16.20
2018,05,25,13,28,16.20
2018,05,25,13,29,16.30
2018,05,25,13,30,16.30
2018,05,25,13,31,16.30
2018,05,25,13,32,16.30
2018,05,25,13,33,16.20
2018,05,25,13,34,16.20
2018,05,25,13,35,16.10
2018,05,25,13,36,16.20
2018,05,25,13,37,16.20
2018,05,25,13,38,16.20
2018,05,25,13,39,16.20
2018,05,25,13,40,16.20
2018,05,25,13,41,16.20
2018,05,25,13,42,16.20
2018,05,25,13,43,16.20
2018,05,25,13,44,16.20
2018,05,25,13,45,16.20
2018,05,25,13,46,16.30
2018,05,25,13,47,16.30
2018,05,25,13,48,16.30
2018,05,25,13,49,16.30
2018,05,25,13,50,16.40
2018,05,25,13,51,16.40
2018,05,25,13,52,16.50
2018,05,25,13,53,16.50
2018,05,25,13,54,16.50
2018,05,25,13,55,16.50
2018,05,25,13,56,16.60
2018,05,25,13,57,16.60
2018,05,25,13,58,16.60
2018,05,25,13,59,16.60
2018,05,25,14,00,16.70
2018,05,25,14,01,16.70
2018,05,25,14,02,16.80
2018,05,25,14,03,16.80
2018,05,25,14,04,16.80
2018,05,25,14,05,16.80
2018,05,25,14,06,16.70
2018,05,25,14,07,16.70
2018,05,25,14,08,16.80
2018,05,25,14,09,16.70
2018,05,25,14,10,16.70
2018,05,25,14,11,16.80
2018,05,25,14,12,16.80
2018,05,25,14,13,16.80
2018,05,25,14,14,16.80
2018,05,25,14,15,16.80
2018,05,25,14,16,16.80
2018,05,25,14,17,16.80
2018,05,25,14,18,16.90
2018,05,25,14,19,16.90
2018,05,25,14,20,16.90
2018,05,25,14,21,16.90
2018,05,25,14,22,16.90
2018,05,25,14,23,16.90
2018,05,25,14,24,17.00
2018,05,25,14,25,17.00
2018,05,25,14,26,17.00
2018,05,25,14,27,17.10
2018,05,25,14,28,17.10
2018,05,25,14,29,17.10
2018,05,25,14,30,17.10
2018,05,25,14,31,17.00
2018,05,25,14,32,17.00
2018,05,25,14,33,16.90
2018,05,25,14,34,16.90
2018,05,25,14,35,16.80
2018,05,25,14,36,16.70
2018,05,25,14,37,16.70
2018,05,25,14,38,16.70
2018,05,25,14,39,16.70
2018,05,25,14,40,16.80
2018,05,25,14,41,16.80
2018,05,25,14,42,16.90
2018,05,25,14,43,16.90
2018,05,25,14,44,17.00
2018,05,25,14,45,17.00
2018,05,25,14,46,17.00
2018,05,25,14,47,17.00
2018,05,25,14,48,17.00
2018,05,25,14,49,16.90
2018,05,25,14,50,16.90
2018,05,25,14,51,16.90
2018,05,25,14,52,16.90
2018,05,25,14,53,17.00
2018,05,25,14,54,17.00
2018,05,25,14,55,17.00
2018,05,25,14,56,17.00
2018,05,25,14,57,17.00
2018,05,25,14,58,17.00
2018,05,25,14,59,17.00
2018,05,25,15,00,17.00
2018,05,25,15,01,16.80
2018,05,25,15,02,16.80
2018,05,25,15,03,16.70
2018,05,25,15,04,16.60
2018,05,25,15,05,16.50
2018,05,25,15,06,16.40
2018,05,25,15,07,16.30
2018,05,25,15,08,16.30
2018,05,25,15,09,16.20
2018,05,25,15,10,16.20
2018,05,25,15,11,16.10
2018,05,25,15,12,16.00
2018,05,25,15,13,16.00
2018,05,25,15,14,15.90
2018,05,25,15,15,15.90
2018,05,25,15,16,15.80
2018,05,25,15,17,15.80
2018,05,25,15,18,15.80
2018,05,25,15,19,15.80
2018,05,25,15,20,15.80
2018,05,25,15,21,15.80
2018,05,25,15,22,15.90
2018,05,25,15,23,15.90
2018,05,25,15,24,15.90
2018,05,25,15,25,16.00
2018,05,25,15,26,16.00
2018,05,25,15,27,16.00
2018,05,25,15,28,16.00
2018,05,25,15,29,16.10
2018,05,25,15,30,16.10
2018,05,25,15,31,16.10
2018,05,25,15,32,16.10
2018,05,25,15,33,16.10
2018,05,25,15,34,16.10
2018,05,25,15,35,16.10
2018,05,25,15,36,16.10
2018,05,25,15,37,16.10
2018,05,25,15,38,16.00
2018,05,25,15,39,16.10
2018,05,25,15,40,16.10
2018,05,25,15,41,16.10
2018,05,25,15,42,16.20
2018,05,25,15,43,16.20
2018,05,25,15,44,16.20
2018,05,25,15,45,16.20
2018,05,25,15,46,16.30
2018,05,25,15,47,16.40
2018,05,25,15,48,16.50
2018,05,25,15,49,16.60
2018,05,25,15,50,16.70
2018,05,25,15,51,16.90
2018,05,25,15,52,17.00
2018,05,25,15,53,17.10
2018,05,25,15,54,17.20
2018,05,25,15,55,17.20
2018,05,25,15,56,17.30
2018,05,25,15,57,17.30
2018,05,25,15,58,17.40
2018,05,25,15,59,17.50
2018,05,25,16,00,17.50
2018,05,25,16,01,17.60
2018,05,25,16,02,17.60
2018,05,25,16,03,17.60
2018,05,25,16,04,17.60
2018,05,25,16,05,17.60
2018,05,25,16,06,17.70
2018,05,25,16,07,17.60
2018,05,25,16,08,17.60
2018,05,25,16,09,17.50
2018,05,25,16,10,17.50
2018,05,25,16,11,17.50
2018,05,25,16,12,17.60
2018,05,25,16,13,17.60
2018,05,25,16,14,17.60
2018,05,25,16,15,17.70
2018,05,25,16,16,17.70
2018,05,25,16,17,17.80
2018,05,25,16,18,17.80
2018,05,25,16,19,17.80
2018,05,25,16,20,17.80
2018,05,25,16,21,17.80
2018,05,25,16,22,17.90
2018,05,25,16,23,17.90
2018,05,25,16,24,18.00
2018,05,25,16,25,18.00
2018,05,25,16,26,18.00
2018,05,25,16,27,18.00
2018,05,25,16,28,18.00
2018,05,25,16,29,18.00
2018,05,25,16,30,18.00
2018,05,25,16,31,18.00
2018,05,25,16,32,17.90
2018,05,25,16,33,17.90
2018,05,25,16,34,17.90
2018,05,25,16,35,17.90
2018,05,25,16,36,17.90
2018,05,25,16,37,17.90
2018,05,25,16,38,17.90
2018,05,25,16,39,17.90
2018,05,25,16,40,18.00
2018,05,25,16,41,18.10
2018,05,25,16,42,18.10
2018,05,25,16,43,18.10
2018,05,25,16,44,18.10
2018,05,25,16,45,18.10
2018,05,25,16,46,18.00
2018,05,25,16,47,18.00
2018,05,25,16,48,17.90
2018,05,25,16,49,17.90
2018,05,25,16,50,17.90
2018,05,25,16,51,17.90
2018,05,25,16,52,17.80
2018,05,25,16,53,17.70
2018,05,25,16,54,17.70
2018,05,25,16,55,17.70
2018,05,25,16,56,17.80
2018,05,25,16,57,17.80
2018,05,25,16,58,17.80
2018,05,25,16,59,17.80
2018,05,25,17,00,17.80
2018,05,25,17,01,17.80
2018,05,25,17,02,17.80
2018,05,25,17,03,17.80
2018,05,25,17,04,17.80
2018,05,25,17,05,17.80
2018,05,25,17,06,17.80
2018,05,25,17,07,17.70
2018,05,25,17,08,17.70
2018,05,25,17,09,17.70
2018,05,25,17,10,17.70
2018,05,25,17,11,17.70
2018,05,25,17,12,17.70
2018,05,25,17,13,17.70
2018,05,25,17,14,17.70
2018,05,25,17,15,17.70
2018,05,25,17,16,17.70
2018,05,25,17,17,17.70
2018,05,25,17,18,17.70
2018,05,25,17,19,17.70
2018,05,25,17,20,17.80